Regional Weather Roundup
Issued by NWS

Home | Current Version | Previous Version | Graphics & Text | Print | Product List | Glossary On
Versions: 1 2 3 4 5 6 7 8 9 10 11 12 13 14 15 16 17 18 19 20 21 22 23 24 25 26 27 28 29 30 31 32 33 34 35 36 37 38 39 40 41 42 43 44 45 46 47 48 49 50
000
ASUS43 KOAX 250410
RWRNE

WEATHER ROUNDUP FOR NEBRASKA
NATIONAL WEATHER SERVICE OMAHA NE
1100 PM CDT THU JUL 24 2014

NOTES: SATELLITE DATA IS BEING USED TO AUGMENT CLOUD COVER ABOVE
       12000 FEET.
       "FAIR" INDICATES FEW OR NO CLOUDS BELOW 12,000 FEET WITH NO
       SIGNIFICANT WEATHER AND/OR OBSTRUCTIONS TO VISIBILITY.

  * THESE STATIONS DO NOT REPORT WEATHER SUCH AS RAIN...SNOW OR FOG.

NEZ001>004-019>022-054>056-250500-
NEBRASKA PANHANDLE

CITY           SKY/WX    TMP DP  RH WIND       PRES   REMARKS
SCOTTSBLUFF    CLEAR     74  57  55 SE7       29.89R
ALLIANCE       CLEAR     67  58  72 SE7       29.88R
CHADRON        CLEAR     83  54  36 S22       29.75F
KIMBALL        PTCLDY    72  55  54 S12       30.00R
SIDNEY         CLEAR     71  58  63 SW9       29.96R
$$

NEZ057>060-069>072-079>082-250500-
SOUTHWEST NEBRASKA

CITY           SKY/WX    TMP DP  RH WIND       PRES   REMARKS
NORTH PLATTE   MOCLDY    81  55  40 CALM      29.82R
IMPERIAL       CLOUDY    74  61  63 CALM      29.89R
LEXINGTON      CLOUDY    85  70  61 SE10      29.83F HX  90
MCCOOK         CLOUDY    87  57  35 S9        29.86F
OGALLALA       PTCLDY    69  58  67 W5        29.86S
$$

NEZ005>010-023>029-035>040-094-250500-
NORTH CENTRAL NEBRASKA

CITY           SKY/WX    TMP DP  RH WIND       PRES   REMARKS
VALENTINE      CLEAR     73  60  63 SE12      29.75S
AINSWORTH      PTCLDY    68  64  87 SE8       29.78R
BROKEN BOW     CLOUDY    74  64  71 NE5       29.84F
O`NEILL        CLOUDY    73  63  70 SW28G35   29.77F
ORD            TSTM      70  68  93 E9        29.88R FOG
THEDFORD       PTCLDY    74  61  63 S3        29.81R
$$

NEZ041-046>049-061>064-073>077-083>087-250500-
SOUTH CENTRAL NEBRASKA

CITY           SKY/WX    TMP DP  RH WIND       PRES   REMARKS
GRAND ISLAND   CLOUDY    79  67  66 SE15G24   29.86R
AURORA         MOCLDY    78  67  68 S13G22    29.86S
HASTINGS       PTCLDY    82  65  56 S14G24    29.85R
HEBRON         CLEAR     79  64  60 S14G22    29.88S
HOLDREGE       CLOUDY    83  69  61 S13G18    29.86R
KEARNEY *      CLOUDY    82  70  65 S15       29.85R
YORK           PTCLDY    75  66  73 SE15G22   29.87R
$$

NEZ011>018-030>034-042>045-250500-
NORTHEAST NEBRASKA

CITY           SKY/WX    TMP DP  RH WIND       PRES   REMARKS
NORFOLK        CLOUDY    75  62  64 S14G22    29.86R
ALBION         CLOUDY    76  64  64 W5        29.92R THUNDER
BLAIR          CLEAR     73  59  62 SE21G26   29.86F
COLUMBUS *     MOCLDY    75  61  60 S16G22    29.85S
FREMONT        PTCLDY    76  61  59 SE21G26   29.86S
TEKAMAH        CLEAR     75  60  59 S16       29.85F
WAYNE          MOCLDY    74  63  68 S16G24    29.84S
$$

NEZ050>053-065>068-078-088>093-250500-
SOUTHEAST NEBRASKA

CITY           SKY/WX    TMP DP  RH WIND       PRES   REMARKS
LINCOLN        PTCLDY    78  60  53 S22G29    29.88F
OMAHA EPPLEY   PTCLDY    75  59  57 S21G31    29.87F
BEATRICE       PTCLDY    75  63  64 SE15G28   29.89F
FALLS CITY     CLEAR     74  61  63 SE13      29.93F
NEBRASKA CITY  CLEAR     71  60  70 S16       29.90F
PLATTSMOUTH    CLEAR     73  59  62 SE16G22   29.89F
$$

NEZ044-045-051>053-067-250500-
OMAHA AREA

CITY           SKY/WX    TMP DP  RH WIND       PRES   REMARKS
OMAHA EPPLEY   PTCLDY    75  59  57 S21G31    29.87F
BLAIR          CLEAR     73  59  62 SE21G26   29.86F
FREMONT        PTCLDY    76  61  59 SE21G26   29.86S
MILLARD        CLEAR     74  61  65 SE13G23   29.88F
OFFUTT AFB     CLEAR     73  62  68 SE17      29.88F
PLATTSMOUTH    CLEAR     73  59  62 SE16G22   29.89F
WAHOO          FAIR      74  60  61 SE15G21   29.87F
$$



USA.gov is the U.S. government's official web portal to all federal, state and local government web resources and services.